This demonstration page uses our WeatherBlox Daily Observations layout. Learn more.

Hourly Observations for August 5, 2020

Temp ( °F °C ) Dew Point ( °F °C ) Humidity (%) Winds ( mph kmh ) Pressure ( in mb ) Visibility ( mi km ) Precip ( " mm )
12:15 am 00:15 Clear 62 16.7 58 14.2 85 85 S 6 9 29.97 1015 10 16.0934 0 0
12:35 am 00:35 Clear 62 16.5 57 14 85 85 S 5 7 30 1016 10 16.0934 0 0
12:55 am 00:55 Clear 61 16 57 14 88 88 S 6 9 30 1016 10 16.0934 0 0
1:15 am 01:15 Clear 61 16.1 57 13.9 87 87 SSE 7 11 30.02 1017 10 16.0934 0 0
1:35 am 01:35 Clear 61 16 57 13.7 86 86 SSE 6 9 30 1016 10 16.0934 0 0
1:55 am 01:55 Clear 61 16 57 13.7 86 86 S 5 7 29.99 1016 10 16.0934 0 0
2:15 am 02:15 Clear 60 15.7 56 13.6 87 87 S 6 9 29.99 1016 10 16.0934 0 0
2:35 am 02:35 Clear 60 15.6 56 13.6 88 88 S 7 11 29.99 1016 10 16.0934 0 0
2:55 am 02:55 Clear 60 15.6 56 13.6 88 88 S 8 13 29.99 1016 10 16.0934 0 0
3:15 am 03:15 Clear 60 15.5 56 13.6 89 89 S 6 9 29.97 1015 10 16.0934 0 0
3:35 am 03:35 Clear 59 15.2 56 13.5 90 90 S 5 7 29.98 1015 10 16.0934 0 0
3:55 am 03:55 Clear 59 15.2 56 13.5 90 90 S 3 6 29.98 1015 10 16.0934 0 0
4:15 am 04:15 Clear 58 14.5 55 13 91 91 SSE 3 6 30 1016 10 16.0934 0 0
4:35 am 04:35 Clear 57 13.8 55 12.8 94 94 SE 3 6 30.01 1016 10 16.0934 0 0
4:55 am 04:55 Clear 57 14 55 13 94 94 SSE 5 7 30.01 1016 10 16.0934 0 0
5:15 am 05:15 Clear 57 14.1 56 13.2 94 94 SSE 6 9 30.02 1016 10 16.0934 0 0
5:35 am 05:35 Clear 57 14.1 55 13 93 93 SSE 5 7 30.01 1016 10 16.0934 0 0
5:55 am 05:55 Clear 57 14 55 12.8 93 93 SSE 6 9 30.01 1016 10 16.0934 0 0
6:15 am 06:15 Clear 57 14 55 12.7 92 92 SSE 6 9 30.01 1016 10 16.0934 0 0
6:35 am 06:35 Clear 57 14 55 12.6 91 91 SSE 6 9 30.01 1016 10 16.0934 0 0
6:55 am 06:55 Sunny 57 14.1 55 12.6 91 91 SSE 7 11 30.02 1016 10 16.0934 0 0
7:15 am 07:15 Sunny 58 14.3 55 12.6 90 90 S 6 9 30.02 1016 10 16.0934 0 0
7:35 am 07:35 Sunny 59 14.8 55 12.9 88 88 S 7 11 30.02 1017 10 16.0934 0 0
7:55 am 07:55 Sunny 60 15.4 56 13.1 86 86 S 8 13 30.02 1016 10 16.0934 0 0
8:15 am 08:15 Sunny 61 16 56 13.4 85 85 S 9 15 30.01 1016 10 16.0934 0 0
8:35 am 08:35 Sunny 63 17 57 13.7 81 81 S 9 15 30 1016 10 16.0934 0 0
8:55 am 08:55 Sunny 64 17.7 57 13.9 79 79 S 10 17 30.01 1016 10 16.0934 0 0
9:15 am 09:15 Sunny 66 18.7 58 14.3 76 76 S 15 24 29.98 1015 10 16.0934 0 0
9:35 am 09:35 Sunny 67 19.3 58 14.6 74 74 SSW 17 28 29.97 1015 10 16.0934 0 0
9:55 am 09:55 Sunny 67 19.4 59 14.8 75 75 S 15 24 29.97 1015 10 16.0934 0 0
10:15 am 10:15 Sunny 68 20.1 59 15.2 74 74 SSW 15 24 29.98 1015 10 16.0934 0 0
10:35 am 10:35 Sunny 68 20 59 15.1 74 74 SSW 8 13 29.97 1015 10 16.0934 0 0
10:55 am 10:55 Sunny 69 20.7 60 15.7 73 73 SSW 7 11 29.96 1015 10 16.0934 0 0
11:15 am 11:15 Sunny 69 20.4 60 15.8 75 75 S 5 7 29.95 1014 10 16.0934 0 0
11:35 am 11:35 Sunny 71 21.7 61 16.3 72 72 S 3 6 29.94 1014 10 16.0934 0 0
11:55 am 11:55 Partly Cloudy 73 22.6 62 16.9 70 70 SW 5 7 29.93 1013 10 16.0934 0 0
12:15 pm 12:15 Partly Cloudy 73 22.6 63 17.2 72 72 E 5 7 29.93 1013 10 16.0934 0 0
12:35 pm 12:35 Sunny 74 23.3 63 17.3 69 69 ESE 6 9 29.91 1013 10 16.0934 0 0
12:55 pm 12:55 Sunny 75 23.9 64 17.8 69 69 SE 8 13 29.9 1012 10 16.0934 0 0
1:15 pm 13:15 Sunny 76 24.4 64 18 68 68 SSE 9 15 29.9 1013 10 16.0934 0 0
1:35 pm 13:35 Sunny 77 25.2 65 18.2 65 65 S 7 11 29.89 1012 10 16.0934 0 0
1:55 pm 13:55 Sunny 77 25.2 64 18 64 64 S 6 9 29.89 1012 10 16.0934 0 0
2:15 pm 14:15 Sunny 78 25.5 65 18.1 64 64 SSE 6 9 29.88 1012 10 16.0934 0 0
2:35 pm 14:35 Sunny 79 26 65 18.2 62 62 SE 7 11 29.88 1012 10 16.0934 0 0
2:55 pm 14:55 Sunny 79 25.9 65 18.1 62 62 SSE 7 11 29.87 1011 10 16.0934 0 0
3:15 pm 15:15 Sunny 80 26.8 66 18.7 61 61 SSE 3 6 29.86 1011 10 16.0934 0 0
3:35 pm 15:35 Sunny 81 27.1 66 19 61 61 SSE 9 15 29.85 1011 10 16.0934 0 0
3:55 pm 15:55 Sunny 81 27.1 65 18.3 59 59 S 7 11 29.84 1010 10 16.0934 0 0
4:15 pm 16:15 Sunny 82 27.5 65 18.3 57 57 S 6 9 29.85 1011 10 16.0934 0 0
4:35 pm 16:35 Sunny 82 27.5 66 18.8 59 59 SE 8 13 29.84 1010 10 16.0934 0 0
4:55 pm 16:55 Sunny 82 27.5 66 18.7 59 59 SE 8 13 29.83 1010 10 16.0934 0 0
5:15 pm 17:15 Sunny 82 28 66 18.9 58 58 SSE 9 15 29.82 1010 10 16.0934 0 0
5:35 pm 17:35 Sunny 82 27.9 66 18.7 57 57 SSE 9 15 29.8 1009 10 16.0934 0 0
5:55 pm 17:55 Sunny 82 28 65 18.6 57 57 SSE 7 11 29.81 1010 10 16.0934 0 0
6:15 pm 18:15 Sunny 82 27.8 66 19 59 59 SE 9 15 29.8 1009 10 16.0934 0 0
6:35 pm 18:35 Sunny 82 27.6 66 19.1 60 60 SE 9 15 29.8 1009 10 16.0934 0 0
6:55 pm 18:55 Sunny 82 27.5 66 18.9 59 59 SE 6 9 29.81 1009 10 16.0934 0 0
7:15 pm 19:15 Sunny 81 27.1 67 19.7 64 64 ESE 6 9 29.8 1009 10 16.0934 0 0
7:35 pm 19:35 Sunny 79 26.3 68 20 68 68 E 6 9 29.81 1009 10 16.0934 0 0
7:55 pm 19:55 Sunny 77 25.2 69 20.4 75 75 E 5 7 29.82 1010 10 16.0934 0 0
8:15 pm 20:15 Sunny 76 24.4 68 20.1 77 77 E 7 11 29.82 1010 10 16.0934 0 0
8:35 pm 20:35 Sunny 75 24 68 20 78 78 E 6 9 29.82 1010 10 16.0934 0 0
8:55 pm 20:55 Clear 74 23.1 68 20 83 83 E 7 11 29.84 1011 10 16.0934 0 0
9:15 pm 21:15 Clear 74 23.2 68 19.8 81 81 E 8 13 29.85 1011 10 16.0934 0 0
9:35 pm 21:35 Clear 73 22.6 68 20 85 85 E 8 13 29.86 1011 10 16.0934 0 0
9:55 pm 21:55 Clear 73 22.5 68 20 86 86 E 9 15 29.86 1011 10 16.0934 0 0
10:15 pm 22:15 Partly Cloudy 72 22.3 68 20 87 87 ESE 8 13 29.87 1011 10 16.0934 0 0
10:35 pm 22:35 Partly Cloudy 72 22.3 68 19.9 86 86 ESE 8 13 29.88 1012 10 16.0934 0 0
10:55 pm 22:55 Partly Cloudy 72 22.3 67 19.6 85 85 ESE 9 15 29.87 1011 10 16.0934 0 0
11:15 pm 23:15 Clear 72 22.2 67 19.7 86 86 ESE 10 17 29.86 1011 10 16.0934 0 0
11:35 pm 23:35 Mostly Cloudy with Nearby Thunderstorms 72 22.1 68 19.8 87 87 ESE 9 15 29.87 1012 10 16.0934 0 0
11:55 pm 23:55 Mostly Cloudy 71 21.9 68 19.8 88 88 ESE 8 13 29.87 1012 10 16.0934 0 0

Powered by AerisWeather